[[{"header":{"parameterUnit":"m.s-1","parameterCategory":2,"la1":30.2991,"la2":30.254,"lo1":-89.0895,"lo2":-89.0444,"dy":0.0017,"dx":0.0017,"nx":28,"ny":28,"refTime":"2024-07-15T21:00:00:Z","depth":"0","parameterNumber":2,"parameterNumberName":"U-component_of_CURRENTS"},"data":[0,0,0,0,0,0,0,0,0,0,0,0,0,0,0,0,0,0,0,0,0,0,0,0,0,0,0,0,0,0,0,0,0,0,0,0,0,0,0,0,0,0,0,0,0,0,0,0,0,0,0,0,0,0,0,0,0,0,0.5396,0.5397,0,0.5465,0.5465,0.5466,0.5442,0.5441,0.544,0.544,0.5437,0.5438,0.5439,0,0,0,0,0,0,0,0,0,0,0,0,0,0.518,0.5184,0.5396,0.5398,0.5399,0.5465,0.5465,0.5466,0.5442,0.5441,0.544,0.5439,0.5437,0.5438,0.5439,0,0,0,0,0,0,0,0,0,0,0,0,0,0.5258,0.5185,0.5396,0.5401,0.5402,0.5465,0.5465,0.5466,0.5443,0.5441,0.544,0.5439,0.5437,0.5438,0.5439,0.5472,0,0,0.5442,0.5443,0,0,0,0,0,0,0,0,0.5253,0.5265,0.5398,0.54,0.5402,0.545,0.5389,0.5467,0.5443,0.542,0.544,0.5438,0.544,0.5441,0.5448,0.5472,0.5472,0.5442,0.5443,0.5444,0.5444,0,0,0,0,0,0,0,0.5248,0.5261,0.5416,0.54,0.5403,0.5378,0.5387,0.5403,0.543,0.5422,0.5422,0.5441,0.544,0.5447,0.5448,0.5472,0.5442,0.5443,0.5444,0.5444,0.5588,0.5591,0,0,0,0,0,0,0.526,0.5257,0.5414,0.5419,0.5331,0.5384,0.5394,0.543,0.5431,0.5433,0.5442,0.544,0.5446,0.5446,0.5448,0.5508,0.5444,0.5445,0.5445,0.5585,0.5588,0.5592,0,0,0,0,0,0,0.5255,0.5274,0.5411,0.5343,0.536,0.539,0.543,0.5432,0.5442,0.5449,0.5447,0.5451,0.5445,0.5446,0.5473,0.5507,0.5445,0.5446,0.5581,0.5586,0.559,0.5615,0,0,0,0,0,0,0.5249,0.5272,0.5296,0.5345,0.5365,0.5445,0.5432,0.5435,0.5459,0.5457,0.5456,0.5454,0.5444,0.5471,0.5474,0.5507,0.5447,0.5577,0.5583,0.5589,0.5611,0.562,0.5629,0,0,0,0,0,0.5241,0.5295,0.5297,0.5316,0.54,0.5447,0.5453,0.5464,0.5461,0.5466,0.5476,0.5454,0.5511,0.5474,0.5476,0.5511,0.5574,0.5581,0.5588,0.5607,0.5619,0.5629,0,0,0,0,0,0,0.5224,0.53,0.5303,0.5379,0.5404,0.5445,0.5465,0.5473,0.5486,0.5483,0.5479,0.548,0.5533,0.5524,0.5484,0.5578,0.5546,0.5554,0.5559,0.5571,0.5579,0.5563,0.5448,0,0,0,0,0,0.5232,0.5283,0.5335,0.539,0.5407,0.5433,0.5454,0.5461,0.5487,0.5491,0.5498,0.5522,0.5568,0.5565,0.5604,0.563,0.5647,0.5665,0.5674,0.5681,0.5675,0.5751,0.5765,0.5615,0.5615,0.5615,0,0,0.5239,0.529,0.5316,0.5387,0.5408,0.5441,0.544,0.5477,0.5504,0.5491,0.5527,0.5561,0.5592,0.564,0.5661,0.5625,0.5736,0.569,0.5695,0.5685,0.576,0.5774,0.5786,0.562,0.5619,0.5618,0,0,0.5263,0.5322,0.5352,0.5383,0.5426,0.5453,0.5466,0.5507,0.5521,0.5567,0.5585,0.5633,0.5677,0.5705,0.5727,0.5811,0.5803,0.5831,0.583,0.5904,0.5916,0.5926,0.5968,0.5982,0.5809,0.5809,0.5809,0,0.5256,0.532,0.5365,0.5397,0.5428,0.546,0.5486,0.552,0.5563,0.5579,0.5583,0.5688,0.5716,0.5776,0.5812,0.5829,0.5855,0.5775,0.5912,0.5923,0.5933,0.5973,0.5988,0.5811,0.5811,0.5811,0.581,0,0.5291,0.5339,0.5366,0.5419,0.5453,0.5491,0.5541,0.5572,0.5605,0.5632,0.5706,0.5752,0.5799,0.5838,0.5848,0.5936,0.5928,0.5932,0.587,0.5949,0.5987,0.6002,0.5814,0.5813,0.5813,0.5812,0,0,0.5272,0.5367,0.5371,0.5375,0.5469,0.548,0.5558,0.5611,0.5622,0.5696,0.5724,0.5838,0.5847,0.5876,0.59,0.5958,0.6068,0.5965,0.5968,0.5982,0.6211,0.6059,0.6061,0.609,0.6092,0.6095,0.6206,0,0.527,0.5314,0.5385,0.5413,0.5429,0.5502,0.5549,0.5601,0.5654,0.5689,0.577,0.5819,0.5865,0.5878,0.5954,0.604,0.6109,0.6036,0.6154,0.6157,0.5993,0.6074,0.5771,0.5832,0.6221,0.6224,0.6225,0,0.526,0.5294,0.5323,0.537,0.5382,0.5413,0.5465,0.5516,0.5604,0.5644,0.5721,0.5775,0.5883,0.5909,0.6094,0.6041,0.6136,0.6203,0.6209,0.6064,0.6033,0.5821,0.5845,0.5649,0.6248,0.6247,0.6245,0,0.5163,0.5237,0.5249,0.5273,0.5347,0.5367,0.5412,0.5491,0.5518,0.5616,0.5646,0.5767,0.5835,0.5977,0.6148,0.6122,0.6346,0.6323,0.6281,0.627,0.6031,0.5993,0.5851,0.6475,0.6475,0.6475,0.6474,0,0.5126,0.5123,0.5193,0.5192,0.5186,0.527,0.5274,0.5344,0.5424,0.5457,0.5603,0.5653,0.5864,0.6015,0.6149,0.626,0.6362,0.629,0.6295,0.6031,0.5994,0.5827,0.5787,0.6479,0.6478,0.6477,0.6476,0,0.5011,0.5068,0.5067,0.5129,0.5139,0.513,0.5197,0.5198,0.5305,0.5363,0.5403,0.5593,0.5765,0.5969,0.6203,0.6242,0.6185,0.6406,0.6065,0.6025,0.569,0.5664,0.5445,0.5309,0.6303,0.63,0.6297,0,0.4955,0.4946,0.4988,0.4985,0.5015,0.5022,0.5028,0.5126,0.5155,0.5322,0.5347,0.5532,0.5639,0.5902,0.6004,0.6166,0.6082,0.5979,0.5863,0.5623,0.5602,0.5466,0.536,0.5573,0.5565,0.5558,0.5553,0,0.4853,0.4872,0.4884,0.4871,0.4871,0.4862,0.4898,0.4893,0.5025,0.508,0.5191,0.5286,0.5506,0.5493,0.5692,0.5776,0.5616,0.5838,0.5688,0.509,0.4836,0.4721,0.5549,0.5493,0.5499,0.5503,0.5506,0.5509,0.4783,0.4761,0.4777,0.4761,0.4741,0.4701,0.4651,0.4697,0.4703,0.4732,0.4941,0.4946,0.5047,0.5224,0.5276,0.5079,0.5204,0.4931,0.4949,0.4855,0.4604,0.5276,0.5159,0.5163,0.5166,0.5169,0.5172,0,0.47,0.4688,0.4666,0.4614,0.4538,0.4581,0.455,0.4468,0.4414,0.445,0.4494,0.442,0.4374,0.4441,0.437,0.4231,0.411,0.413,0.3864,0.3832,0.4497,0.4339,0.3914,0.3914,0.3914,0.3914,0.3914,0.3915,0.4658,0.4611,0.4601,0.4447,0.4394,0.4228,0.4191,0.4073,0.4033,0.3831,0.3699,0.3742,0.3869,0.3851,0.3657,0.3577,0.3356,0.3181,0.3288,0.3733,0.3808,0.3879,0.3716,0.3167,0.3167,0.2414,0.2408,0.2404]},{"header":{"parameterUnit":"m.s-1","parameterCategory":2,"la1":30.2991,"la2":30.254,"lo1":-89.0895,"lo2":-89.0444,"dy":0.0017,"dx":0.0017,"nx":28,"ny":28,"refTime":"2024-07-15T21:00:00:Z","depth":"0","parameterNumber":3,"parameterNumberName":"V-component_of_CURRENTS"},"data":[0,0,0,0,0,0,0,0,0,0,0,0,0,0,0,0,0,0,0,0,0,0,0,0,0,0,0,0,0,0,0,0,0,0,0,0,0,0,0,0,0,0,0,0,0,0,0,0,0,0,0,0,0,0,0,0,0,0,0.0429,0.0429,0,0.043,0.043,0.043,0.0379,0.0378,0.0377,0.0376,0.0287,0.0286,0.0285,0,0,0,0,0,0,0,0,0,0,0,0,0,0.04,0.04,0.0429,0.0429,0.0429,0.043,0.043,0.043,0.038,0.0378,0.0377,0.0375,0.0288,0.0286,0.0285,0,0,0,0,0,0,0,0,0,0,0,0,0,0.0406,0.04,0.0429,0.0406,0.0404,0.043,0.043,0.043,0.038,0.0378,0.0376,0.0375,0.0288,0.0286,0.0284,0.0309,0,0,0.0279,0.0278,0,0,0,0,0,0,0,0,0.0406,0.0407,0.0409,0.0407,0.0405,0.0404,0.0387,0.0385,0.038,0.0387,0.0376,0.0374,0.032,0.0316,0.0319,0.0305,0.0301,0.0279,0.0277,0.0277,0.0276,0,0,0,0,0,0,0,0.0405,0.0407,0.0428,0.0409,0.0407,0.04,0.0399,0.0387,0.0361,0.0386,0.0383,0.0386,0.0318,0.0321,0.0316,0.03,0.0279,0.0277,0.0276,0.0275,0.0345,0.0348,0,0,0,0,0,0,0.041,0.0407,0.0428,0.0428,0.0403,0.0402,0.0401,0.0405,0.0363,0.0356,0.0388,0.0384,0.0325,0.0319,0.0313,0.0368,0.0277,0.0275,0.0274,0.0342,0.0345,0.0349,0,0,0,0,0,0,0.0409,0.0412,0.0428,0.0418,0.042,0.0405,0.041,0.0406,0.0412,0.0365,0.0356,0.0399,0.0323,0.0315,0.0313,0.0362,0.0274,0.0272,0.0338,0.0343,0.0347,0.0458,0,0,0,0,0,0,0.0408,0.0412,0.0421,0.0419,0.0421,0.0453,0.0412,0.0407,0.0417,0.0412,0.0372,0.0361,0.0321,0.0317,0.0312,0.0358,0.0271,0.0335,0.034,0.0346,0.0451,0.0466,0.0479,0,0,0,0,0,0.0407,0.0444,0.0422,0.0425,0.0433,0.0455,0.0456,0.0437,0.042,0.0434,0.0407,0.0363,0.0349,0.0317,0.031,0.0358,0.0332,0.0339,0.0345,0.0444,0.0463,0.0478,0,0,0,0,0,0,0.0456,0.0443,0.0418,0.0452,0.0451,0.0447,0.0466,0.0452,0.0446,0.0438,0.0388,0.0377,0.0399,0.0369,0.0336,0.0399,0.0339,0.0345,0.0417,0.0434,0.0448,0.0463,0.0269,0,0,0,0,0,0.0466,0.0474,0.0465,0.0491,0.0493,0.0479,0.0488,0.0475,0.0468,0.0463,0.0439,0.0423,0.0426,0.0419,0.0412,0.0438,0.0413,0.0471,0.0485,0.0497,0.0508,0.0521,0.0536,0.037,0.037,0.037,0,0,0.0493,0.0486,0.0491,0.0499,0.0495,0.0522,0.048,0.0502,0.0528,0.0455,0.0486,0.0468,0.0445,0.0477,0.0486,0.0452,0.0534,0.0505,0.0515,0.052,0.0529,0.0545,0.0559,0.0375,0.0374,0.0373,0,0,0.0551,0.0543,0.0563,0.0569,0.0568,0.0566,0.0576,0.0578,0.0579,0.0603,0.057,0.0584,0.0576,0.0579,0.0577,0.067,0.0609,0.0671,0.0747,0.076,0.0773,0.0784,0.0777,0.0786,0.0675,0.0675,0.0675,0,0.0577,0.0602,0.0578,0.0605,0.0622,0.0591,0.0631,0.064,0.0643,0.0658,0.0626,0.0657,0.0633,0.0686,0.0717,0.0702,0.0685,0.0679,0.0776,0.0787,0.0796,0.0786,0.0795,0.0681,0.0681,0.068,0.0679,0,0.0646,0.0667,0.0691,0.0702,0.0723,0.0755,0.0758,0.0781,0.0777,0.078,0.0825,0.0803,0.0819,0.0827,0.0795,0.0867,0.0825,0.0791,0.0727,0.0819,0.0803,0.081,0.069,0.0688,0.0686,0.0685,0,0,0.0689,0.0726,0.0731,0.0749,0.0775,0.0798,0.0854,0.0893,0.0932,0.0936,0.0995,0.101,0.0991,0.099,0.0963,0.0975,0.1028,0.0916,0.0914,0.0898,0.104,0.0947,0.0945,0.1001,0.1004,0.1005,0.1001,0,0.074,0.0804,0.0816,0.0886,0.0919,0.0924,0.0981,0.1012,0.1028,0.1078,0.1074,0.1113,0.1055,0.1069,0.1077,0.1048,0.1052,0.1031,0.0962,0.0961,0.0858,0.0953,0.0905,0.0892,0.1008,0.1009,0.101,0,0.0794,0.0828,0.0903,0.0965,0.0982,0.1026,0.1098,0.1144,0.1201,0.1217,0.1251,0.124,0.1282,0.1209,0.1204,0.1189,0.1128,0.109,0.1088,0.0967,0.0882,0.082,0.09,0.0659,0.1021,0.102,0.1019,0,0.0817,0.0889,0.0948,0.0969,0.104,0.1081,0.1122,0.1184,0.1241,0.1307,0.1364,0.1376,0.1417,0.1352,0.1283,0.1244,0.1261,0.1191,0.1047,0.1039,0.0968,0.095,0.0798,0.1179,0.1179,0.1179,0.1179,0,0.0862,0.0907,0.096,0.0992,0.1075,0.111,0.1205,0.1248,0.1334,0.1444,0.1434,0.1538,0.1457,0.1456,0.1342,0.1235,0.1307,0.1082,0.1044,0.1005,0.0991,0.0751,0.066,0.1179,0.1179,0.1179,0.1179,0,0.0875,0.0912,0.0979,0.1055,0.1086,0.114,0.1256,0.1331,0.1405,0.1554,0.159,0.1676,0.169,0.1579,0.1502,0.1329,0.1088,0.1151,0.1101,0.1056,0.0641,0.0561,0.0412,0.0341,0.0975,0.0973,0.0971,0,0.0886,0.0921,0.1012,0.1062,0.1097,0.1185,0.1265,0.1355,0.1458,0.1665,0.1761,0.1826,0.1932,0.1762,0.1475,0.1244,0.1065,0.0985,0.0889,0.0627,0.0511,0.0448,0.0396,0.0846,0.0843,0.0841,0.0839,0,0.0902,0.0932,0.099,0.1091,0.1175,0.1285,0.141,0.1511,0.1669,0.1841,0.2088,0.2195,0.2035,0.1818,0.1441,0.1243,0.0804,0.0926,0.0689,0.043,0.0324,0.0235,0.0822,0.082,0.0822,0.0823,0.0824,0.0825,0.0908,0.0949,0.1029,0.113,0.1237,0.1397,0.1529,0.1712,0.1944,0.2251,0.2325,0.2509,0.2087,0.1595,0.1292,0.0588,0.0672,0.0357,0.0294,0.0262,0.0151,0.0675,0.0599,0.0599,0.06,0.0601,0.0601,0,0.0911,0.0973,0.1066,0.1206,0.1342,0.14,0.1643,0.1826,0.2156,0.2406,0.2655,0.2474,0.1964,0.1377,0.0473,0.0027,-0.0092,-0.0211,-0.0309,-0.0319,0.0166,0.0111,-0.0116,-0.0115,-0.0115,-0.0115,-0.0115,-0.0114,0.0917,0.1,0.106,0.1273,0.139,0.162,0.1785,0.2087,0.2313,0.2622,0.2677,0.2704,0.2171,0.0687,-0.035,-0.0561,-0.0795,-0.0867,-0.0949,-0.0657,-0.0609,-0.0564,-0.0642,-0.1022,-0.1023,-0.1413,-0.1417,-0.142]}],[{"header":{"parameterUnit":"m.s-1","parameterCategory":2,"la1":30.2991,"la2":30.254,"lo1":-89.0895,"lo2":-89.0444,"dy":0.0017,"dx":0.0017,"nx":28,"ny":28,"refTime":"2024-07-15T21:00:00:Z","depth":"2","parameterNumber":2,"parameterNumberName":"U-component_of_CURRENTS"},"data":[0,0,0,0,0,0,0,0,0,0,0,0,0,0,0,0,0,0,0,0,0,0,0,0,0,0,0,0,0,0,0,0,0,0,0,0,0,0,0,0,0,0,0,0,0,0,0,0,0,0,0,0,0,0,0,0,0,0,0.3219,0.322,0,0.3254,0.3253,0.3253,0.3412,0.3417,0.3422,0.3426,0.3664,0.3666,0.3668,0,0,0,0,0,0,0,0,0,0,0,0,0,0.3215,0.3214,0.3219,0.322,0.3222,0.3254,0.3253,0.3253,0.3412,0.3417,0.3423,0.3428,0.3663,0.3666,0.3668,0,0,0,0,0,0,0,0,0,0,0,0,0,0.3221,0.3214,0.3219,0.3312,0.3321,0.3254,0.3253,0.3253,0.341,0.3417,0.3424,0.3431,0.3663,0.3666,0.3669,0.3548,0,0,0.3678,0.3679,0,0,0,0,0,0,0,0,0.322,0.3219,0.3297,0.3306,0.3316,0.3345,0.334,0.3365,0.3409,0.3366,0.3426,0.3434,0.3577,0.3588,0.3562,0.3559,0.3569,0.3678,0.368,0.3681,0.3682,0,0,0,0,0,0,0,0.322,0.3219,0.3223,0.3298,0.331,0.3327,0.3335,0.3343,0.3428,0.337,0.3385,0.3402,0.3584,0.3558,0.357,0.3573,0.3678,0.3681,0.3683,0.3684,0.3852,0.3854,0,0,0,0,0,0,0.323,0.3217,0.3222,0.3225,0.3295,0.3322,0.3331,0.332,0.3425,0.3448,0.3396,0.3409,0.355,0.3566,0.3579,0.3784,0.3681,0.3684,0.3686,0.3849,0.3852,0.3855,0,0,0,0,0,0,0.3229,0.3229,0.3221,0.3232,0.3234,0.3317,0.3302,0.3318,0.3367,0.3443,0.3471,0.3441,0.3556,0.3575,0.3676,0.3783,0.3685,0.3688,0.3846,0.385,0.3854,0.3977,0,0,0,0,0,0,0.3228,0.3227,0.3226,0.3232,0.3234,0.3224,0.3297,0.3314,0.3367,0.3387,0.3488,0.3514,0.3563,0.3672,0.3679,0.3785,0.3691,0.3843,0.3848,0.3852,0.3969,0.3984,0.3997,0,0,0,0,0,0.3227,0.3236,0.3224,0.3227,0.3227,0.3225,0.3226,0.3302,0.3364,0.3373,0.3477,0.3515,0.3711,0.3674,0.3683,0.3793,0.384,0.3846,0.3852,0.3963,0.3981,0.3997,0,0,0,0,0,0,0.3197,0.3252,0.3242,0.3252,0.3245,0.3258,0.3312,0.3314,0.3385,0.3475,0.3516,0.3546,0.3688,0.3693,0.3651,0.3855,0.3792,0.38,0.3874,0.3891,0.3905,0.3854,0.3693,0,0,0,0,0,0.3184,0.3241,0.3228,0.3234,0.3263,0.3274,0.329,0.334,0.34,0.3441,0.3494,0.3595,0.3692,0.3758,0.3822,0.3894,0.3872,0.3979,0.3993,0.4005,0.3969,0.4076,0.4097,0.3875,0.3875,0.3875,0,0,0.319,0.3211,0.325,0.3238,0.3273,0.331,0.3306,0.3386,0.3434,0.3456,0.3572,0.3637,0.3719,0.3847,0.3911,0.3883,0.4046,0.4012,0.4022,0.3978,0.4085,0.4106,0.4126,0.3879,0.3878,0.3877,0,0,0.3225,0.3241,0.3307,0.3317,0.3378,0.3391,0.3418,0.3452,0.351,0.3582,0.3656,0.376,0.3864,0.3946,0.4005,0.4109,0.4114,0.4165,0.4205,0.4314,0.4332,0.4349,0.4301,0.4312,0.4179,0.418,0.418,0,0.3243,0.3261,0.3311,0.3356,0.3386,0.3435,0.3478,0.3528,0.3582,0.3621,0.367,0.3844,0.3914,0.4065,0.4124,0.4146,0.4155,0.4145,0.4333,0.4349,0.4363,0.4311,0.4322,0.4186,0.4186,0.4185,0.4184,0,0.3296,0.3326,0.3381,0.3461,0.3486,0.3552,0.3617,0.3675,0.3754,0.3779,0.3931,0.4012,0.4107,0.4175,0.4188,0.4338,0.4288,0.4338,0.4289,0.4393,0.433,0.434,0.4196,0.4194,0.4192,0.419,0,0,0.3308,0.3408,0.3423,0.3441,0.3555,0.3566,0.3704,0.3767,0.3844,0.3952,0.4031,0.4201,0.4227,0.4286,0.4338,0.4419,0.452,0.4423,0.4426,0.4368,0.4664,0.4513,0.4507,0.4641,0.4645,0.4647,0.4559,0,0.3333,0.3399,0.3453,0.3522,0.3563,0.3654,0.3732,0.3824,0.3924,0.4017,0.4158,0.4266,0.4287,0.4355,0.4453,0.4537,0.4558,0.453,0.4573,0.4569,0.4424,0.452,0.4183,0.4069,0.4567,0.4569,0.457,0,0.3345,0.3382,0.3443,0.3513,0.3545,0.3602,0.3723,0.3802,0.3977,0.4064,0.4218,0.4308,0.4464,0.4465,0.4631,0.4631,0.4619,0.4648,0.4649,0.4463,0.444,0.4057,0.4066,0.4584,0.4583,0.4582,0.4581,0,0.3265,0.3361,0.3393,0.3425,0.3533,0.3588,0.3664,0.3817,0.3895,0.4094,0.4188,0.4381,0.4495,0.46,0.4687,0.468,0.4827,0.4833,0.4638,0.4621,0.4308,0.4259,0.4866,0.4866,0.4866,0.4866,0.4866,0,0.3235,0.3259,0.336,0.3374,0.342,0.3527,0.3617,0.3723,0.3903,0.4004,0.42,0.4317,0.4549,0.4676,0.4713,0.4721,0.4861,0.4617,0.4619,0.4333,0.429,0.4726,0.4711,0.4863,0.4863,0.4864,0.4865,0,0.3135,0.3211,0.3237,0.3344,0.3382,0.3416,0.3578,0.3639,0.383,0.3983,0.4056,0.4308,0.4504,0.4659,0.481,0.4721,0.4759,0.4686,0.4259,0.4212,0.4433,0.4425,0.4434,0.4429,0.4424,0.4421,0.4417,0,0.3086,0.3087,0.318,0.3199,0.3254,0.3337,0.3394,0.3586,0.3667,0.396,0.4018,0.4265,0.4346,0.4502,0.4519,0.4513,0.468,0.409,0.4006,0.4402,0.4404,0.4403,0.4402,0.3599,0.359,0.3582,0.3575,0,0.2959,0.3,0.3018,0.307,0.3124,0.3177,0.3291,0.3345,0.3577,0.3709,0.3875,0.3951,0.4116,0.4003,0.4016,0.3974,0.4092,0.392,0.4524,0.378,0.3615,0.3617,0.3643,0.3505,0.3512,0.3517,0.3521,0.3524,0.2846,0.2836,0.2872,0.2919,0.2964,0.3,0.3032,0.3121,0.3217,0.3372,0.3568,0.359,0.3605,0.3498,0.3412,0.3408,0.3652,0.3448,0.3473,0.3506,0.3445,0.3285,0.309,0.3095,0.3099,0.3102,0.3105,0,0.2685,0.271,0.2723,0.2758,0.2744,0.2859,0.2937,0.2942,0.2967,0.3073,0.3146,0.2907,0.277,0.2916,0.2746,0.2644,0.2631,0.2575,0.2546,0.2616,0.2679,0.2578,0.1992,0.1989,0.1986,0.1983,0,0,0.2599,0.2565,0.2595,0.2537,0.2581,0.2578,0.2616,0.2592,0.2637,0.2571,0.2558,0.2687,0.277,0.2362,0.2271,0.2124,0.2367,0.2044,0.2935,0.2974,0.3033,0.3175,0.3097,0,0,0,0,0]},{"header":{"parameterUnit":"m.s-1","parameterCategory":2,"la1":30.2991,"la2":30.254,"lo1":-89.0895,"lo2":-89.0444,"dy":0.0017,"dx":0.0017,"nx":28,"ny":28,"refTime":"2024-07-15T21:00:00:Z","depth":"2","parameterNumber":3,"parameterNumberName":"V-component_of_CURRENTS"},"data":[0,0,0,0,0,0,0,0,0,0,0,0,0,0,0,0,0,0,0,0,0,0,0,0,0,0,0,0,0,0,0,0,0,0,0,0,0,0,0,0,0,0,0,0,0,0,0,0,0,0,0,0,0,0,0,0,0,0,-0.0269,-0.0269,0,-0.0303,-0.0304,-0.0305,-0.0465,-0.0468,-0.0472,-0.0475,-0.0662,-0.0664,-0.0666,0,0,0,0,0,0,0,0,0,0,0,0,0,-0.0207,-0.0208,-0.0269,-0.0269,-0.0269,-0.0303,-0.0304,-0.0305,-0.0464,-0.0468,-0.0472,-0.0476,-0.0662,-0.0664,-0.0666,0,0,0,0,0,0,0,0,0,0,0,0,0,-0.0241,-0.0209,-0.0269,-0.0349,-0.0357,-0.0303,-0.0304,-0.0305,-0.0463,-0.0468,-0.0473,-0.0478,-0.0661,-0.0664,-0.0666,-0.0584,0,0,-0.0675,-0.0676,0,0,0,0,0,0,0,0,-0.0239,-0.0244,-0.0338,-0.0344,-0.0352,-0.0381,-0.035,-0.0404,-0.0462,-0.0428,-0.0475,-0.0481,-0.0575,-0.0585,-0.0585,-0.0592,-0.06,-0.0675,-0.0677,-0.0678,-0.0679,0,0,0,0,0,0,0,-0.0237,-0.0243,-0.0288,-0.0337,-0.0346,-0.0337,-0.0349,-0.036,-0.048,-0.0431,-0.0442,-0.0436,-0.0582,-0.0582,-0.0591,-0.0603,-0.0675,-0.0678,-0.0679,-0.068,-0.0744,-0.0744,0,0,0,0,0,0,-0.0225,-0.0241,-0.0287,-0.0288,-0.0301,-0.0334,-0.0348,-0.037,-0.0477,-0.0495,-0.0432,-0.0443,-0.0575,-0.0588,-0.0599,-0.0626,-0.0678,-0.0681,-0.0682,-0.0744,-0.0744,-0.0744,0,0,0,0,0,0,-0.0224,-0.023,-0.0285,-0.026,-0.0266,-0.033,-0.0354,-0.0368,-0.0395,-0.0474,-0.0498,-0.0447,-0.0579,-0.0595,-0.0666,-0.0631,-0.0682,-0.0685,-0.0744,-0.0744,-0.0744,-0.0605,0,0,0,0,0,0,-0.0222,-0.023,-0.0244,-0.026,-0.0267,-0.0271,-0.0349,-0.0365,-0.038,-0.0397,-0.0494,-0.0515,-0.0584,-0.0661,-0.0669,-0.0636,-0.0687,-0.0744,-0.0744,-0.0744,-0.0609,-0.06,-0.0592,0,0,0,0,0,-0.022,-0.0228,-0.0245,-0.025,-0.0285,-0.0269,-0.0272,-0.0336,-0.0376,-0.038,-0.0475,-0.0514,-0.0667,-0.0663,-0.0672,-0.0639,-0.0744,-0.0744,-0.0744,-0.0613,-0.0602,-0.0592,0,0,0,0,0,0,-0.0211,-0.0244,-0.0265,-0.0284,-0.0279,-0.0295,-0.0308,-0.0321,-0.0387,-0.0436,-0.0508,-0.0535,-0.0585,-0.0632,-0.0625,-0.0664,-0.0711,-0.0713,-0.0609,-0.0598,-0.059,-0.0521,-0.0689,0,0,0,0,0,-0.0206,-0.0227,-0.0236,-0.0246,-0.0252,-0.0269,-0.027,-0.031,-0.0358,-0.0393,-0.045,-0.0528,-0.0577,-0.061,-0.0669,-0.0668,-0.0684,-0.0659,-0.065,-0.0642,-0.0596,-0.0591,-0.0575,-0.0744,-0.0744,-0.0744,0,0,-0.0205,-0.0219,-0.0235,-0.0244,-0.0258,-0.0238,-0.0287,-0.0304,-0.0286,-0.0399,-0.0425,-0.0499,-0.0576,-0.0607,-0.063,-0.0647,-0.0612,-0.0642,-0.0634,-0.0592,-0.0589,-0.0571,-0.0556,-0.0744,-0.0744,-0.0744,0,0,-0.0175,-0.0228,-0.022,-0.0214,-0.0224,-0.0235,-0.0231,-0.0252,-0.0279,-0.0293,-0.0381,-0.0431,-0.0496,-0.0538,-0.0566,-0.0532,-0.057,-0.0563,-0.0448,-0.0443,-0.0428,-0.0414,-0.0436,-0.0426,-0.055,-0.055,-0.055,0,-0.0168,-0.0154,-0.0207,-0.018,-0.0161,-0.0224,-0.0181,-0.02,-0.0238,-0.0226,-0.0305,-0.0362,-0.045,-0.0432,-0.0451,-0.0502,-0.0519,-0.0476,-0.0425,-0.0412,-0.04,-0.0427,-0.0416,-0.0543,-0.0544,-0.0545,-0.0545,0,-0.0109,-0.0101,-0.0095,-0.0086,-0.0077,-0.0061,-0.0081,-0.0085,-0.0122,-0.0126,-0.013,-0.0234,-0.0255,-0.0299,-0.0372,-0.032,-0.0368,-0.0416,-0.0435,-0.0373,-0.0408,-0.0399,-0.0534,-0.0536,-0.0538,-0.054,0,0,-0.0071,-0.0055,-0.0048,-0.0011,-0.0025,-0.0001,0.0017,0.0056,0.0103,0.0038,0.0127,0.0013,-0.0028,-0.0062,-0.0143,-0.0149,-0.0122,-0.024,-0.0243,-0.0231,-0.0123,-0.0194,-0.0194,-0.0157,-0.0154,-0.0152,-0.0187,0,0.0007,0.0091,0.0075,0.0157,0.0198,0.0162,0.0213,0.0221,0.0208,0.0262,0.0191,0.02,0.0061,0.0052,0.003,-0.0068,-0.009,-0.0108,-0.021,-0.0212,-0.0257,-0.0182,-0.0172,-0.0204,-0.018,-0.0179,-0.0178,0,0.0093,0.0143,0.0237,0.0312,0.0327,0.0359,0.0437,0.0474,0.0508,0.0504,0.0506,0.0445,0.0436,0.0297,0.0202,0.0198,0.0054,-0.0039,-0.0044,-0.0139,-0.0266,-0.0261,-0.0191,-0.0165,-0.0166,-0.0167,-0.0168,0,0.0187,0.0266,0.0352,0.0371,0.0431,0.0475,0.0508,0.0548,0.0616,0.0663,0.0717,0.0681,0.0668,0.054,0.0318,0.0269,0.021,0.0112,-0.0087,-0.0096,-0.0117,-0.0131,0.0045,0.0045,0.0045,0.0045,0.0045,0,0.0294,0.0363,0.0398,0.0446,0.0571,0.0569,0.07,0.0729,0.081,0.0937,0.0848,0.0946,0.0726,0.0651,0.0435,0.0223,0.0294,-0.0027,-0.0086,-0.0077,-0.0087,-0.0079,-0.0092,0.0044,0.0044,0.0045,0.0045,0,0.0379,0.0402,0.0506,0.0581,0.0614,0.0697,0.0814,0.0922,0.0963,0.1136,0.1163,0.115,0.1071,0.0832,0.062,0.0364,0.017,0.0053,0.0063,0.0006,-0.0174,-0.0181,-0.0138,-0.0141,-0.0143,-0.0144,-0.0146,0,0.0431,0.0492,0.0599,0.0671,0.0702,0.0818,0.0924,0.0995,0.1122,0.1287,0.1404,0.1364,0.1325,0.0982,0.0613,0.0247,0.0196,-0.0039,-0.0139,-0.0119,-0.0181,-0.0185,-0.0189,-0.013,-0.0131,-0.0132,-0.0133,0,0.0534,0.0557,0.064,0.0791,0.0899,0.1047,0.1194,0.1327,0.146,0.1596,0.1773,0.1736,0.1397,0.103,0.0485,0.0244,0.0028,-0.0074,0.0002,-0.0096,-0.0117,-0.0177,-0.018,-0.0141,-0.014,-0.0139,-0.0139,-0.0139,0.0598,0.0674,0.0779,0.0926,0.1061,0.1265,0.1404,0.1582,0.1806,0.1973,0.1967,0.1869,0.1415,0.0712,0.0344,-0.0018,-0.0031,-0.0237,-0.0231,-0.0225,-0.0228,-0.0252,-0.0303,-0.0303,-0.0303,-0.0304,-0.0304,0,0.0686,0.0767,0.0913,0.1096,0.127,0.1307,0.158,0.1731,0.1994,0.2062,0.2089,0.1645,0.1168,0.0751,0.0171,-0.025,-0.0257,-0.0335,-0.0269,-0.026,-0.0252,-0.0254,-0.0338,-0.0339,-0.0339,-0.034,0,0,0.0734,0.088,0.0963,0.1246,0.1362,0.158,0.1731,0.1946,0.2048,0.2115,0.2007,0.1734,0.1209,0.0773,0.0285,-0.0007,-0.0039,-0.0063,-0.0006,0.0136,0.0149,-0.018,-0.0171,0,0,0,0,0]}],[{"header":{"parameterUnit":"m.s-1","parameterCategory":2,"la1":30.2991,"la2":30.254,"lo1":-89.0895,"lo2":-89.0444,"dy":0.0017,"dx":0.0017,"nx":28,"ny":28,"refTime":"2024-07-15T21:00:00:Z","depth":"4","parameterNumber":2,"parameterNumberName":"U-component_of_CURRENTS"},"data":[0,0,0,0,0,0,0,0,0,0,0,0,0,0,0,0,0,0,0,0,0,0,0,0,0,0,0,0,0,0,0,0,0,0,0,0,0,0,0,0,0,0,0,0,0,0,0,0,0,0,0,0,0,0,0,0,0,0,0.1083,0.1085,0,0.1142,0.1141,0.1141,0.1147,0.1148,0.1148,0.1149,0.123,0.1232,0.1233,0,0,0,0,0,0,0,0,0,0,0,0,0,0.1014,0.1014,0.1083,0.1085,0.1087,0.1142,0.1141,0.1141,0.1147,0.1148,0.1148,0.1149,0.1229,0.1231,0.1233,0,0,0,0,0,0,0,0,0,0,0,0,0,0.1044,0.1014,0.1083,0.1106,0.1109,0.1142,0.1141,0.1141,0.1147,0.1148,0.1149,0.1149,0.1229,0.1231,0.1234,0.1233,0,0,0.1241,0.1242,0,0,0,0,0,0,0,0,0.1042,0.1045,0.11,0.1104,0.1108,0.1149,0.1148,0.1177,0.1147,0.112,0.1149,0.115,0.1212,0.1216,0.1207,0.1237,0.124,0.1241,0.1243,0.1244,0.1245,0,0,0,0,0,0,0,0.104,0.1043,0.1094,0.1103,0.1108,0.1127,0.113,0.1152,0.1152,0.1122,0.1126,0.1152,0.1213,0.1205,0.121,0.1241,0.1241,0.1244,0.1245,0.1246,0.1364,0.1365,0,0,0,0,0,0,0.1055,0.104,0.1092,0.1097,0.1091,0.1128,0.1131,0.1125,0.1151,0.1159,0.1151,0.1152,0.12,0.1207,0.1213,0.1292,0.1244,0.1246,0.1248,0.1362,0.1364,0.1366,0,0,0,0,0,0,0.1052,0.1057,0.109,0.1082,0.1089,0.113,0.1122,0.1126,0.1151,0.1175,0.1181,0.1177,0.1201,0.1209,0.1272,0.1292,0.1247,0.125,0.136,0.1363,0.1365,0.14,0,0,0,0,0,0,0.1049,0.1055,0.1065,0.1082,0.1091,0.1126,0.1123,0.1127,0.117,0.1172,0.1199,0.1205,0.1202,0.1269,0.1275,0.1295,0.1252,0.1358,0.1361,0.1364,0.1397,0.1403,0.1409,0,0,0,0,0,0.1046,0.1048,0.1064,0.1072,0.1098,0.1128,0.1133,0.1157,0.1171,0.118,0.1216,0.1206,0.1292,0.1273,0.1279,0.13,0.1357,0.136,0.1364,0.1394,0.1402,0.1409,0,0,0,0,0,0,0.1015,0.1051,0.1068,0.1079,0.1116,0.1134,0.1155,0.1176,0.1207,0.1219,0.1234,0.1243,0.1312,0.1304,0.1282,0.1345,0.132,0.1325,0.134,0.1348,0.1354,0.141,0.1254,0,0,0,0,0,0.1018,0.1032,0.1072,0.1085,0.1104,0.1136,0.1159,0.1178,0.121,0.1224,0.1259,0.1289,0.1324,0.1337,0.1372,0.14,0.1415,0.1417,0.1423,0.1428,0.148,0.1524,0.1539,0.1378,0.1378,0.1378,0,0,0.1015,0.1037,0.1047,0.1083,0.1106,0.1142,0.1147,0.1187,0.1227,0.1231,0.13,0.133,0.1346,0.1389,0.1414,0.1385,0.1471,0.1433,0.1437,0.1487,0.153,0.1546,0.156,0.138,0.138,0.138,0,0,0.1009,0.103,0.1042,0.1078,0.1136,0.116,0.1183,0.1231,0.126,0.1326,0.1347,0.14,0.1442,0.146,0.147,0.1532,0.1521,0.153,0.1585,0.1626,0.164,0.1652,0.1643,0.1655,0.1509,0.1509,0.1509,0,0.1004,0.1027,0.1054,0.1083,0.1128,0.1175,0.1213,0.1246,0.1316,0.136,0.136,0.1472,0.1478,0.1539,0.1563,0.1548,0.1561,0.1547,0.1634,0.1647,0.166,0.1648,0.1661,0.1511,0.1511,0.1511,0.1511,0,0.1011,0.1047,0.106,0.1116,0.116,0.1202,0.1265,0.1325,0.1378,0.142,0.1522,0.1547,0.1619,0.1607,0.1608,0.1696,0.1671,0.1651,0.1614,0.1678,0.1661,0.1673,0.1514,0.1514,0.1513,0.1512,0,0,0.0957,0.1046,0.1057,0.1101,0.1188,0.1222,0.1306,0.1394,0.1465,0.1534,0.1636,0.1686,0.1729,0.1749,0.175,0.1777,0.1845,0.1762,0.1763,0.1751,0.1917,0.1814,0.1817,0.1845,0.1848,0.1851,0.185,0,0.0962,0.1017,0.1073,0.1155,0.1194,0.1284,0.1356,0.1446,0.1528,0.164,0.1694,0.1804,0.1767,0.1831,0.185,0.1867,0.189,0.1847,0.1862,0.1862,0.1762,0.1833,0.1863,0.1859,0.1862,0.1864,0.1866,0,0.0957,0.1002,0.1068,0.1187,0.1214,0.1278,0.1425,0.1503,0.1656,0.173,0.1844,0.1923,0.2014,0.1985,0.2025,0.2003,0.1995,0.198,0.1979,0.1899,0.1786,0.1795,0.1888,0.1887,0.1885,0.1883,0.1882,0,0.0903,0.1007,0.1063,0.1103,0.1232,0.1301,0.139,0.1532,0.1627,0.1833,0.1921,0.2037,0.2111,0.2139,0.213,0.2104,0.216,0.2097,0.1989,0.1977,0.2051,0.2038,0.2167,0.2167,0.2167,0.2167,0.2167,0,0.0883,0.0937,0.1048,0.1082,0.1172,0.1282,0.141,0.152,0.1706,0.1818,0.1975,0.2067,0.2169,0.2215,0.2188,0.2119,0.2197,0.2041,0.1997,0.2055,0.2044,0.2055,0.2042,0.2167,0.2167,0.2167,0.2167,0,0.0819,0.0889,0.0957,0.1092,0.1146,0.1213,0.142,0.1513,0.1688,0.1851,0.1947,0.2122,0.217,0.2216,0.2255,0.2164,0.2137,0.2102,0.2162,0.2114,0.1904,0.1893,0.197,0.1967,0.1964,0.1962,0.1961,0,0.0786,0.0813,0.0941,0.0984,0.1054,0.1185,0.1276,0.1487,0.1592,0.1842,0.1899,0.2067,0.215,0.2089,0.2144,0.2109,0.2083,0.2059,0.2005,0.1948,0.1897,0.189,0.1883,0.1956,0.1956,0.1955,0.1954,0,0.0723,0.0772,0.083,0.0913,0.1002,0.111,0.1261,0.1336,0.1573,0.1736,0.186,0.195,0.1988,0.2018,0.2033,0.1993,0.2072,0.2031,0.2034,0.1983,0.1932,0.1882,0.1878,0.1946,0.1947,0.1948,0.1948,0,0.067,0.0691,0.0764,0.0838,0.0933,0.1011,0.111,0.1252,0.139,0.1671,0.1695,0.1833,0.1973,0.1957,0.1951,0.1938,0.189,0.1826,0.184,0.185,0.1815,0.1733,0.1681,0,0,0,0,0,0.0614,0.0638,0.0692,0.076,0.085,0.0913,0.1089,0.1198,0.1411,0.1464,0.1599,0.1653,0.1719,0.1778,0.1732,0.1852,0.1865,0.179,0.1791,0.1896,0.1906,0.1878,0,0,0,0,0,0,0.0575,0.0618,0.0655,0.0682,0.0717,0.0816,0.0921,0.1069,0.1121,0.1337,0.1368,0.1542,0.1598,0.1706,0.1688,0.1707,0.1676,0.1882,0.1878,0.189,0.19,0.1908,0.1882,0,0,0,0,0]},{"header":{"parameterUnit":"m.s-1","parameterCategory":2,"la1":30.2991,"la2":30.254,"lo1":-89.0895,"lo2":-89.0444,"dy":0.0017,"dx":0.0017,"nx":28,"ny":28,"refTime":"2024-07-15T21:00:00:Z","depth":"4","parameterNumber":3,"parameterNumberName":"V-component_of_CURRENTS"},"data":[0,0,0,0,0,0,0,0,0,0,0,0,0,0,0,0,0,0,0,0,0,0,0,0,0,0,0,0,0,0,0,0,0,0,0,0,0,0,0,0,0,0,0,0,0,0,0,0,0,0,0,0,0,0,0,0,0,0,0.0251,0.025,0,0.0199,0.0198,0.0198,0.0198,0.0198,0.0199,0.02,0.0084,0.0081,0.0077,0,0,0,0,0,0,0,0,0,0,0,0,0,0.0277,0.0277,0.0251,0.025,0.0249,0.0199,0.0198,0.0198,0.0198,0.0198,0.0199,0.02,0.0085,0.0081,0.0077,0,0,0,0,0,0,0,0,0,0,0,0,0,0.0249,0.0277,0.0251,0.0243,0.0242,0.0199,0.0198,0.0197,0.0197,0.0198,0.0199,0.02,0.0087,0.0081,0.0076,0.0021,0,0,0.0059,0.0057,0,0,0,0,0,0,0,0,0.0251,0.0248,0.0245,0.0244,0.0243,0.0206,0.0165,0.0135,0.0197,0.0214,0.02,0.0201,0.0118,0.011,0.0099,0.0015,0.0011,0.0058,0.0055,0.0053,0.0051,0,0,0,0,0,0,0,0.0253,0.025,0.023,0.0244,0.0243,0.0218,0.0216,0.016,0.016,0.0213,0.0213,0.0207,0.0117,0.0104,0.0096,0.0009,0.0059,0.0054,0.005,0.0048,-0.0108,-0.0109,0,0,0,0,0,0,0.0262,0.0252,0.0232,0.0228,0.025,0.0217,0.0215,0.0216,0.0162,0.0155,0.0206,0.0207,0.0113,0.0102,0.0092,0.0061,0.0053,0.0047,0.0044,-0.0107,-0.0108,-0.0109,0,0,0,0,0,0,0.0263,0.0261,0.0234,0.0239,0.0234,0.0216,0.0218,0.0215,0.0214,0.0157,0.015,0.021,0.0114,0.01,0.0051,0.0055,0.0045,0.004,-0.0106,-0.0108,-0.0109,-0.0025,0,0,0,0,0,0,0.0264,0.0262,0.0264,0.024,0.0234,0.0219,0.0217,0.0213,0.0208,0.021,0.0157,0.0147,0.0113,0.006,0.0045,0.0047,0.0036,-0.0105,-0.0107,-0.0108,-0.0027,-0.0023,-0.002,0,0,0,0,0,0.0266,0.0277,0.0264,0.0261,0.0238,0.0219,0.0214,0.0204,0.0208,0.0207,0.0172,0.015,0.004,0.0054,0.0038,0.0039,-0.0105,-0.0107,-0.0108,-0.0028,-0.0024,-0.002,0,0,0,0,0,0,0.0287,0.0277,0.0263,0.0269,0.0246,0.022,0.0226,0.0209,0.0181,0.0186,0.0136,0.0122,0.008,0.0039,0.0056,-0.0014,-0.0036,-0.0041,0.0031,0.0034,0.0038,0.0037,0.0031,0,0,0,0,0,0.029,0.0301,0.0273,0.0276,0.0274,0.0248,0.0239,0.0227,0.02,0.0191,0.0151,0.0104,0.0055,0.0033,-0.0019,-0.0061,-0.0117,-0.0073,-0.0069,-0.0066,-0.0081,-0.0162,-0.0167,-0.0115,-0.0115,-0.0115,0,0,0.0299,0.0294,0.0299,0.0281,0.0272,0.0268,0.0247,0.0244,0.0232,0.0178,0.0158,0.011,0.0044,0.0005,-0.0017,-0.0024,-0.0109,-0.0068,-0.0064,-0.0082,-0.0164,-0.0169,-0.0174,-0.0116,-0.0116,-0.0116,0,0,0.0325,0.0322,0.0338,0.0325,0.0309,0.0291,0.0293,0.0265,0.0252,0.0213,0.0175,0.0125,0.0058,0.0011,-0.0022,-0.0041,-0.0091,-0.0046,-0.0026,-0.0103,-0.0108,-0.0113,-0.0173,-0.0185,-0.004,-0.0039,-0.0039,0,0.0332,0.0347,0.0336,0.0344,0.034,0.0307,0.0314,0.029,0.0244,0.0222,0.0217,0.0104,0.0054,-0.0007,-0.0005,-0.0033,-0.0076,-0.0025,-0.0097,-0.0103,-0.011,-0.0171,-0.0184,-0.0036,-0.0036,-0.0036,-0.0037,0,0.0364,0.0373,0.0388,0.0389,0.0379,0.0382,0.035,0.0332,0.0309,0.027,0.0207,0.0133,0.0066,0.0047,0.0017,-0.0048,-0.0063,-0.0082,-0.0098,-0.0109,-0.0174,-0.0189,-0.003,-0.0032,-0.0033,-0.0034,0,0,0.0384,0.0406,0.0409,0.0421,0.0404,0.0403,0.0388,0.0353,0.0341,0.0279,0.0247,0.0156,0.0115,0.0072,0.0025,-0.0041,-0.0114,-0.0068,-0.0074,-0.0113,-0.0271,-0.0217,-0.0229,-0.0134,-0.0136,-0.0138,-0.0291,0,0.0409,0.0442,0.0438,0.0462,0.0479,0.0449,0.0438,0.0399,0.0357,0.0316,0.0225,0.0182,0.0126,0.011,0.0027,-0.0088,-0.0154,-0.0071,-0.027,-0.0277,-0.0214,-0.0245,-0.0147,-0.0302,-0.0306,-0.0309,-0.0311,0,0.0436,0.0455,0.0491,0.0507,0.0512,0.052,0.05,0.0482,0.041,0.0376,0.0301,0.0239,0.0127,0.01,-0.0121,-0.006,-0.0161,-0.0247,-0.0255,-0.025,-0.0251,-0.0299,-0.0339,-0.0337,-0.0335,-0.0333,-0.0331,0,0.0461,0.049,0.0525,0.053,0.054,0.0552,0.0553,0.0502,0.0496,0.0425,0.0403,0.026,0.0188,0.0033,-0.0146,-0.0133,-0.0382,-0.0389,-0.0439,-0.0436,-0.0474,-0.0468,-0.0538,-0.0538,-0.0537,-0.0537,-0.0536,0,0.0484,0.0511,0.055,0.0569,0.0611,0.0601,0.0627,0.0599,0.0566,0.0552,0.0445,0.0386,0.0168,0.0009,-0.0145,-0.0344,-0.039,-0.0451,-0.0479,-0.0433,-0.0421,-0.0484,-0.0476,-0.0542,-0.0541,-0.054,-0.0539,0,0.0502,0.0525,0.0571,0.0608,0.063,0.066,0.0706,0.0712,0.0672,0.0649,0.0639,0.046,0.0241,0.003,-0.0241,-0.0337,-0.0522,-0.0572,-0.0502,-0.0521,-0.0526,-0.0512,-0.0655,-0.0654,-0.0654,-0.0653,-0.0653,0,0.0513,0.0543,0.0613,0.0649,0.0677,0.0732,0.0767,0.077,0.0773,0.0686,0.0664,0.0472,0.0334,-0.0023,-0.0245,-0.0527,-0.0551,-0.0621,-0.0584,-0.0529,-0.0542,-0.0528,-0.0515,-0.0652,-0.0652,-0.0652,-0.0652,0,0.0528,0.0559,0.0597,0.0684,0.0744,0.0806,0.0855,0.0867,0.0849,0.0825,0.0691,0.052,0.0264,-0.0017,-0.0228,-0.0429,-0.0564,-0.0618,-0.062,-0.0586,-0.0528,-0.0538,-0.0526,-0.0651,-0.0651,-0.0651,-0.0651,0,0.0539,0.0571,0.0633,0.0701,0.0781,0.0838,0.087,0.0871,0.0878,0.0793,0.0742,0.0484,0.0331,0.0032,-0.0172,-0.0355,-0.0397,-0.0414,-0.0427,-0.0432,-0.0308,-0.0199,-0.0257,0,0,0,0,0,0.054,0.0575,0.0642,0.0714,0.0794,0.0844,0.0902,0.0919,0.091,0.0839,0.0802,0.0581,0.0267,0.0097,-0.0081,-0.0179,-0.0437,-0.0387,-0.0465,-0.0643,-0.0644,-0.0531,0,0,0,0,0,0,0.0539,0.0601,0.0633,0.071,0.0763,0.0854,0.0893,0.0892,0.0847,0.081,0.0622,0.0575,0.0234,0.0358,-0.008,-0.0139,-0.0198,-0.0538,-0.054,-0.0642,-0.0643,-0.0644,-0.0528,0,0,0,0,0]}]]